Regional Weather Roundup
Issued by NWS San Angelo, TX

Home | Current Version | Previous Version | Text Only | Print | Product List | Glossary On
Versions: 1 2 3 4 5 6 7 8 9 10 11 12 13 14 15 16 17 18 19 20 21 22 23 24 25 26 27 28 29 30 31 32 33 34 35 36 37 38 39 40 41 42 43 44 45 46 47 48 49 50
000
ASUS44 KSJT 181158
RWRSJT
WEST CENTRAL TEXAS REGIONAL WEATHER ROUNDUP
NATIONAL WEATHER SERVICE SAN ANGELO TX
700 AM CDT FRI APR 18 2014

NOTE: "FAIR" INDICATES FEW OR NO CLOUDS BELOW 12,000 FEET WITH NO
SIGNIFICANT WEATHER AND/OR OBSTRUCTIONS TO VISIBILITY.

TXZ049-054-064>066-071>073-076>078-098-099-113-114-127-128-139-140-
154-155-168>170-181300
...LOCATIONS ACROSS WEST CENTRAL TEXAS...

CITY           SKY/WX    TMP DP  RH WIND       PRES   REMARKS
SAN ANGELO     CLOUDY    57  52  83 CALM      30.20R
ABILENE        CLOUDY    51  49  92 N7        30.21S
DYESS AFB      NOT AVBL
JUNCTION       CLOUDY    60  57  89 E7        30.17S
SWEETWATER     NOT AVBL
BROWNWOOD      NOT AVBL
COLEMAN        NOT AVBL
SONORA         NOT AVBL
OZONA          NOT AVBL
BRADY          NOT AVBL
$$

TEXAS PANHANDLE/OKLAHOMA PANHANDLE

CITY           SKY/WX    TMP DP  RH WIND       PRES   REMARKS
AMARILLO       CLOUDY    39  34  82 SW9       30.21F WCI  33
BORGER         CLEAR     42  38  85 W6        30.21R WCI  38
CANADIAN       NOT AVBL
DALHART        CLEAR     30  28  92 S7        30.20F FOG     WCI  23
DUMAS          NOT AVBL
GUYMON         NOT AVBL
HEREFORD       NOT AVBL
PAMPA          NOT AVBL
PERRYTON       NOT AVBL
$$

SOUTHERN PANHANDLE/SOUTH PLAINS/ROLLING PLAINS

CITY           SKY/WX    TMP DP  RH WIND       PRES   REMARKS
LUBBOCK        NOT AVBL
SNYDER         NOT AVBL
CHILDRESS      NOT AVBL
SEMINOLE       NOT AVBL
$$

PERMIAN BASIN

CITY           SKY/WX    TMP DP  RH WIND       PRES   REMARKS
MIDLAND        NOT AVBL
ODESSA         NOT AVBL
WINK           NOT AVBL
$$

FAR WEST/SOUTHWEST MOUNTAINS/TRANS PECOS

CITY           SKY/WX    TMP DP  RH WIND       PRES   REMARKS
ALPINE         NOT AVBL
DRYDEN           N/A     61  59  93 E12       30.14R
EL PASO        CLOUDY    57  39  51 NE9       30.10R
FORT STOCKTON  CLOUDY    59  53  80 SE10      30.18R
GUADALUPE PASS LGT RAIN  45  45 100 NE31      30.18R VSB 1/2 WCI  35
MARFA          NOT AVBL
PECOS          NOT AVBL
$$

DALLAS/FORT WORTH METROPLEX

CITY           SKY/WX    TMP DP  RH WIND       PRES   REMARKS
DFW AIRPORT    NOT AVBL
FTW MEACHAM    NOT AVBL
DAL-EXECUTIVE  NOT AVBL
GRAND PRAIRIE  NOT AVBL
ADDISON        NOT AVBL
MESQUITE       CLOUDY    54  52  94 CALM      30.21R
LANCASTER      NOT AVBL
$$

NORTH CENTRAL TEXAS

CITY           SKY/WX    TMP DP  RH WIND       PRES   REMARKS
SHRMAN/DENISON NOT AVBL
GAINESVILLE    NOT AVBL
BRIDGEPORT     NOT AVBL
DENTON         NOT AVBL
WAXAHACHIE     NOT AVBL
GRANBURY       NOT AVBL
$$

WESTERN NORTH TEXAS

CITY           SKY/WX    TMP DP  RH WIND       PRES   REMARKS
WICHITA FALLS  CLOUDY    49  46  90 N6        30.23R
VERNON         NOT AVBL
BRECKENRIDGE   NOT AVBL
COMANCHE       NOT AVBL
$$

CENTRAL AND SOUTH CENTRAL TEXAS

CITY           SKY/WX    TMP DP  RH WIND       PRES   REMARKS
AUSTIN/BERGSTM CLOUDY    60  59  96 CALM      30.17R FOG
WACO           PTCLDY    52  51  97 W5        30.19R FOG
HILLSBORO      NOT AVBL
TEMPLE         NOT AVBL
KILLEEN-GRAY   NOT AVBL
FORT HOOD      NOT AVBL
GEORGETOWN     CLOUDY    59  57  94 NE3       30.18S FOG
LAGO VISTA     NOT AVBL
SAN MARCOS     CLOUDY    59  55  88 CALM      30.19R
NEW BRAUNFELS  CLOUDY    60  60 100 E3        30.16R FOG
RANDOLPH AFB   MOCLDY    61  59  94 N2        30.17R FOG
SAN ANTONIO    MOCLDY    61  59  93 N3        30.17R FOG
STINSON        PTCLDY    62  60  93 CALM      30.15R FOG
PLEASANTON     NOT AVBL
LA GRANGE      NOT AVBL
GIDDINGS       NOT AVBL
$$

EAST TEXAS

CITY           SKY/WX    TMP DP  RH WIND       PRES   REMARKS
PARIS          NOT AVBL
CLARKSVILLE    NOT AVBL
TYLER          NOT AVBL
LONGVIEW       NOT AVBL
PALESTINE      NOT AVBL
NACOGDOCHES    NOT AVBL
$$

TEXAS HILL COUNTRY AND EDWARDS PLATEAU

CITY           SKY/WX    TMP DP  RH WIND       PRES   REMARKS
LLANO          NOT AVBL
HORSESHOE BAY  NOT AVBL
KERRVILLE      NOT AVBL
FREDERICKSBRG  NOT AVBL
ROCKSPRINGS    NOT AVBL
HONDO          CLOUDY    63  58  83 NE5       30.18R
UVALDE         NOT AVBL
DEL RIO        LGT RAIN  63  61  93 E6        30.14S FOG
$$

SOUTHEAST TEXAS

CITY           SKY/WX    TMP DP  RH WIND       PRES   REMARKS
COLLEGE STN    MOCLDY    59  58  96 N5        30.18R
CALDWELL       NOT AVBL
CROCKETT       NOT AVBL
BRENHAM        NOT AVBL
HUNTSVILLE     MOCLDY    56  54  93 CALM      30.18R
CONROE         PTCLDY    54  52  93 CALM      30.17R
HOUSTON BUSH   MOCLDY    59  54  83 N3        30.16R
HOUSTON HOBBY  PTCLDY    59  53  80 NE3       30.15R
PERLAND        MOCLDY    60  54  80 CALM      30.16R
WHARTON        NOT AVBL
$$

THE UPPER TEXAS COAST

CITY           SKY/WX    TMP DP  RH WIND       PRES   REMARKS
ORANGE         NOT AVBL
PORT ARTHUR    PTCLDY    55  52  89 N6        30.14R
GALVESTON      CLEAR     59  56  89 N8        30.14R
ANGLETON       NOT AVBL
BAY CITY       NOT AVBL
$$

TEXAS COASTAL BEND, RIO GRANDE PLAINS DEEP SOUTH TEXAS

CITY           SKY/WX    TMP DP  RH WIND       PRES   REMARKS
VICTORIA       CLOUDY    60  57  89 NE6       30.15R
BEEVILLE       NOT AVBL
ROCKPORT       CLOUDY    62  59  90 N13       30.13R
PORT ARANSAS   NOT AVBL
PORT LAVACA    NOT AVBL
CORPUS CHRISTI CLOUDY    65  60  84 N8        30.13R
KINGSVILLE NAS NOT AVBL
COTULLA        CLOUDY    63  59  87 E6        30.15R
LAREDO         CLOUDY    66  63  88 E7        30.15R
BROWNSVILLE    CLOUDY    68  66  93 N6        30.08R
PORT ISABEL    CLOUDY    69  66  90 N7        30.08R
HEBBRONVILLE   NOT AVBL
MCALLEN        CLOUDY    68  66  93 N6        30.10R
WESLACO        NOT AVBL
FALFURRIAS     NOT AVBL
EDINBURG       NOT AVBL
$$



USA.gov is the U.S. government's official web portal to all federal, state and local government web resources and services.